Home   Weather   Hong Kong   Past weeks

Flag for Hong Kong Past Weather in Hong Kong, Hong Kong — Yesterday and Last 2 Weeks

86 °F

Passing clouds.

Feels Like: 95 °F
Forecast: 76 / 85 °F
Wind: 10 mph from Southeast

Location: National Airport

Current Time: Oct 22, 2016 at 4:57:51 PM

Latest Report: Oct 22, 2016 at 4:30 PM

Visibility: N/A

Pressure: 29.71 "Hg

Humidity: 70%

Dew Point: 75 °F

Location of Hong KongLocation

Past Weather in Hong Kong — Graph


Hong Kong Temperature Yesterday

Maximum temperature yesterday: 82 °F (at 12:00 AM)
Minimum temperature yesterday: 79 °F (at 7:30 AM)
Average temperature yesterday: 81 °F

High & Low Weather Summary for the Past Weeks

High90 °F (Oct 8, 11:30 AM)94% (Oct 11, 5:30 AM)30.01 "Hg (Oct 11, 5:30 AM)
Low70 °F (Oct 11, 5:30 AM)49% (Oct 10, 2:30 PM)29.30 "Hg (Oct 21, 11:30 AM)
Average81 °F73%29.79 "Hg
* Reported Oct 7 3:00 PM — Oct 22 3:30 PM, Hong Kong, Weather by CustomWeather, © 2016

Note: Actual official high and low records may vary slightly from our data, if they occured in-between our weather recording intervals... More about our weather records


Hong Kong Weather History for the Previous 24 Hours

Scroll right to see more
Time TempWeatherWind HumidityBarometerVisibility
3:30 PM
Sat, Oct 22
88 °FPassing clouds.9 mph66%29.71 "HgN/A
3:00 PM86 °FPassing clouds.8 mph70%29.71 "HgN/A
2:30 PM88 °FPassing clouds.9 mph66%29.74 "HgN/A
2:00 PM88 °FScattered clouds.8 mph66%29.74 "HgN/A
1:30 PM88 °FScattered clouds.12 mph66%29.74 "HgN/A
1:00 PM88 °FScattered clouds.9 mph66%29.74 "HgN/A
12:30 PM86 °FScattered clouds.10 mph70%29.77 "HgN/A
12:00 PM86 °FScattered clouds.12 mph70%29.77 "HgN/A
11:30 AM86 °FScattered clouds.10 mph70%29.77 "HgN/A
11:00 AM86 °FScattered clouds.10 mph70%29.80 "HgN/A
10:30 AM86 °FScattered clouds.9 mph75%29.80 "HgN/A
10:00 AM84 °FScattered clouds.9 mph79%29.80 "HgN/A
9:30 AM82 °FScattered clouds.12 mph84%29.80 "HgN/A
9:00 AM82 °FScattered clouds.12 mph84%29.80 "HgN/A
8:00 AM81 °FSprinkles. Scattered clouds.9 mph89%29.77 "HgN/A
7:30 AM81 °FScattered clouds.8 mph89%29.77 "HgN/A
7:00 AM81 °FSprinkles. Scattered clouds.8 mph89%29.74 "HgN/A
6:30 AM81 °FPassing clouds.9 mph89%29.74 "HgN/A
6:00 AM81 °FPassing clouds.9 mph89%29.71 "HgN/A
5:30 AM81 °FPassing clouds.13 mph89%29.71 "HgN/A
5:00 AM82 °FPassing clouds.12 mph84%29.71 "HgN/A
4:30 AM81 °FPassing clouds.14 mph89%29.68 "HgN/A
4:00 AM81 °FPassing clouds.16 mph89%29.68 "Hg6 mi
3:30 AM81 °FPassing clouds.15 mph89%29.68 "Hg6 mi
3:00 AM82 °FPassing clouds.12 mph84%29.68 "Hg6 mi
2:30 AM81 °FPassing clouds.14 mph89%29.68 "Hg6 mi
2:00 AM82 °FPassing clouds.16 mph84%29.65 "Hg6 mi
1:30 AM81 °FPassing clouds.17 mph89%29.65 "Hg6 mi
1:00 AM81 °FPassing clouds.16 mph89%29.65 "Hg6 mi
12:30 AM82 °FPassing clouds.15 mph84%29.68 "Hg6 mi
12:00 AM82 °FPassing clouds.16 mph84%29.65 "Hg6 mi
11:30 PM
Fri, Oct 21
82 °FPassing clouds.18 mph84%29.65 "Hg6 mi
11:00 PM82 °FPassing clouds.18 mph84%29.65 "Hg6 mi
10:30 PM82 °FPassing clouds.22 mph84%29.65 "Hg6 mi
10:00 PM82 °FPassing clouds.22 mph84%29.62 "Hg6 mi
9:30 PM82 °FPassing clouds.26 mph84%29.62 "Hg6 mi
9:00 PM82 °FPassing clouds.26 mph84%29.59 "Hg6 mi
8:30 PM82 °FPassing clouds.26 mph84%29.59 "HgN/A
8:00 PM82 °FPassing clouds.26 mph84%29.56 "HgN/A
7:30 PM81 °FSprinkles. Passing clouds.28 mph89%29.56 "Hg6 mi
7:00 PM81 °FSprinkles. Passing clouds.28 mph84%29.53 "Hg6 mi
6:30 PM81 °FSprinkles. Passing clouds.28 mph84%29.50 "HgN/A
6:00 PM81 °FSprinkles. Passing clouds.31 mph84%29.50 "HgN/A
5:30 PM81 °FSprinkles. Scattered clouds.31 mph84%29.47 "HgN/A
5:00 PM81 °FRain showers. Scattered clouds.31 mph84%29.47 "Hg6 mi
4:30 PM81 °FRain showers. Scattered clouds.31 mph89%29.45 "Hg4 mi
4:00 PM81 °FRain showers. Scattered clouds.30 mph84%29.42 "Hg3 mi
Weather by CustomWeather, © 2016

See weather overviewHow to use our weather pages